Fairbanks, AK

4:50 PM AKST on December 13, 2019 (GMT -0900)
Fairbanks International

Weather History for PAFA - May, 2019

Change the Weather History Date:

Tuesday, May 7, 2019

  Actual Average Record
Temperature  
Mean Temperature 49 °F 46 °F  
Max Temperature 69 °F 57 °F 70 °F (2005)
Min Temperature 29 °F 34 °F 12 °F (1922)
Degree Days  
Heating Degree Days 16 19  
Month to date heating degree days 142 145  
Since 1 July heating degree days 11404 13169  
Cooling Degree Days 0 0  
Month to date cooling degree days 0 0  
Year to date cooling degree days 0 0  
Moisture  
Dew Point 26 °F    
Average Humidity 39    
Maximum Humidity 67    
Minimum Humidity 15    
Precipitation  
Precipitation T in 0.02 in 0.36 in (1962)
Month to date precipitation 0.07 0.11  
Year to date precipitation 2.55 1.67  
Snow  
Snow 0.00 in 0.10 in 2.00 in (1962)
Month to date snowfall T 0.4  
Since 1 July snowfall 57.5 64.5  
Snow Depth 0.00 in    
Sea Level Pressure  
Sea Level Pressure 29.75 in    
Wind  
Wind Speed 7 mph (NNE)    
Max Wind Speed 12 mph    
Max Gust Speed -    
Visibility 10 miles    
Events      
T = Trace of Precipitation, MM = Missing Value Source: NWS Daily Summary

Daily Weather History Graph

Daily Weather History Graph

Search for Another Location

Airport or City:

Astronomy

May. 07, 2019 Rise Set
Actual Time 4:57 AM AKDT 10:41 PM AKDT
Civil Twilight 3:32 AM AKDT 12:09 AM AKDT
Nautical Twilight Sun does not rise Sun does not rise
Astronomical Twilight Sun does not rise Sun does not rise
Moon 6:37 AM AKDT (5/7) 1:15 AM AKDT (5/7)
Length of Visible Light 20h 37m
Length of Day
17h 44m
Waxing Crescent, 9% of the Moon is Illuminated
May 7
Waxing Crescent
May 11
First Quarter
May 18
Full
May 26
Last Quarter
Jun 3
New

Hourly Weather History & Observations

Time (AKDT) Temp. Windchill Dew Point Humidity Pressure Visibility Wind Dir Wind Speed Gust Speed Precip Events Conditions
12:53 AM 35.1 °F 28.6 °F 21.0 °F 57% 29.79 in 10.0 mi North 8.1 mph - N/A   Scattered Clouds
1:53 AM 34.0 °F 28.8 °F 19.9 °F 56% 29.81 in 10.0 mi North 5.8 mph - N/A   Scattered Clouds
2:53 AM 32.0 °F 26.4 °F 19.9 °F 61% 29.81 in 10.0 mi NNE 5.8 mph - N/A   Scattered Clouds
3:53 AM 32.0 °F 26.4 °F 19.9 °F 61% 29.81 in 10.0 mi NE 5.8 mph - N/A   Scattered Clouds
4:53 AM 30.9 °F 24.3 °F 21.0 °F 67% 29.81 in 10.0 mi NNE 6.9 mph - N/A   Scattered Clouds
5:53 AM 32.0 °F 24.8 °F 21.0 °F 64% 29.81 in 10.0 mi NNE 8.1 mph - N/A   Scattered Clouds
6:53 AM 36.0 °F 30.3 °F 21.9 °F 57% 29.81 in 10.0 mi NNE 6.9 mph - N/A   Partly Cloudy
7:53 AM 39.0 °F 34.0 °F 21.9 °F 50% 29.80 in 10.0 mi NE 6.9 mph - N/A   Partly Cloudy
8:53 AM 45.0 °F 40.6 °F 23.0 °F 42% 29.80 in 10.0 mi NE 8.1 mph - N/A   Scattered Clouds
9:53 AM 48.0 °F - 24.1 °F 39% 29.78 in 10.0 mi NNE 6.9 mph - N/A   Mostly Cloudy
10:53 AM 54.0 °F - 27.0 °F 35% 29.76 in 10.0 mi NNE 8.1 mph - N/A   Scattered Clouds
11:53 AM 55.9 °F - 28.9 °F 36% 29.75 in 10.0 mi East 9.2 mph - N/A   Scattered Clouds
12:53 PM 60.1 °F - 30.0 °F 32% 29.73 in 10.0 mi East 9.2 mph - N/A   Mostly Cloudy
1:53 PM 63.0 °F - 28.9 °F 28% 29.71 in 10.0 mi ENE 11.5 mph - N/A   Mostly Cloudy
2:53 PM 64.9 °F - 28.9 °F 26% 29.69 in 10.0 mi East 9.2 mph - N/A   Mostly Cloudy
3:53 PM 64.9 °F - 28.9 °F 26% 29.68 in 10.0 mi Variable 5.8 mph - N/A   Mostly Cloudy
4:53 PM 69.1 °F - 30.0 °F 23% 29.68 in 10.0 mi SSW 10.4 mph - N/A   Mostly Cloudy
5:53 PM 66.0 °F - 30.9 °F 27% 29.68 in 10.0 mi West 6.9 mph - N/A   Mostly Cloudy
6:53 PM 64.0 °F - 30.9 °F 29% 29.70 in 10.0 mi Variable 5.8 mph - N/A   Mostly Cloudy
7:53 PM 64.9 °F - 30.9 °F 28% 29.69 in 10.0 mi Variable 5.8 mph - N/A   Mostly Cloudy
8:53 PM 61.0 °F - 30.9 °F 32% 29.70 in 10.0 mi West 6.9 mph - N/A   Mostly Cloudy
9:53 PM 60.1 °F - 30.0 °F 32% 29.71 in 10.0 mi NNW 3.5 mph - N/A   Mostly Cloudy
10:53 PM 57.9 °F - 30.9 °F 36% 29.71 in 10.0 mi North 3.5 mph - N/A   Mostly Cloudy
11:53 PM 55.0 °F - 33.1 °F 43% 29.73 in 10.0 mi NW 4.6 mph - N/A   Mostly Cloudy